Quensel Arpt, British Columbia

9:54 AM PST on February 21, 2017 (GMT -0800)
Quesnel

Weather History for CYQZ - October, 2012

Change the Weather History Date:

Saturday, October 6, 2012

  Actual Average Record
Temperature  
Mean Temperature 43 °F -  
Max Temperature 60 °F 46 °F 68 °F (1998)
Min Temperature 26 °F 29 °F 21 °F (2000)
Degree Days  
Heating Degree Days 22    
Moisture  
Dew Point 32 °F    
Average Humidity 92    
Maximum Humidity 100    
Minimum Humidity 42    
Precipitation  
Precipitation 0.00 in - - ()
Sea Level Pressure  
Sea Level Pressure 30.44 in    
Wind  
Wind Speed 1 mph ()    
Max Wind Speed 4 mph    
Max Gust Speed -    
Visibility 4.8 miles    
Events Fog    
Averages and records for this station are not official NWS values.
T = Trace of Precipitation, MM = Missing Value Source: Averaged Metar Reports

Daily Weather History Graph

Daily Weather History Graph

Search for Another Location

Airport or City:

Trip Planner

Search our weather history database for the weather conditions in past years. The results will help you decide how hot, cold, wet, or windy it might be!

Date:

Astronomy

Oct. 06, 2012 Rise Set
Actual Time 7:21 AM PDT 6:33 PM PDT
Civil Twilight 6:46 AM PDT 7:08 PM PDT
Nautical Twilight 6:06 AM PDT 7:47 PM PDT
Astronomical Twilight 5:26 AM PDT 8:28 PM PDT
Moon 10:16 PM PDT (10/6) 1:58 PM PDT (10/6)
Length of Visible Light 12h 21m
Length of Day
11h 12m
Waning Gibbous, 64% of the Moon is Illuminated
Oct 6
Waning Gibbous
Oct 8
Last Quarter
Oct 15
New
Oct 21
First Quarter
Oct 29
Full

Hourly Weather History & Observations

Time (PDT) Temp. Windchill Dew Point Humidity Pressure Visibility Wind Dir Wind Speed Gust Speed Precip Events Conditions
12:00 AM 33.8 °F - 32.0 °F 93% 30.46 in 9.0 mi Calm Calm - N/A   Clear
1:00 AM 32.0 °F - 30.2 °F 93% 30.46 in 9.0 mi Calm Calm - N/A   Clear
2:00 AM 32.0 °F - 30.2 °F 93% 30.47 in 9.0 mi Calm Calm - N/A   Clear
3:00 AM 32.0 °F - 30.2 °F 93% 30.47 in 9.0 mi Calm Calm - N/A   Clear
3:45 AM 30.2 °F - 30.2 °F 100% 30.47 in 9.0 mi Calm Calm - N/A   Partly Cloudy
4:00 AM 30.2 °F - 30.2 °F 100% 30.47 in 9.0 mi Calm Calm - N/A   Scattered Clouds
4:05 AM 30.2 °F - 30.2 °F 100% 30.47 in 9.0 mi Calm Calm - N/A   Mostly Cloudy
4:28 AM 30.2 °F - 30.2 °F 100% 30.47 in 4.0 mi Calm Calm - N/A   Mostly Cloudy
4:29 AM 30.2 °F - 30.2 °F 100% 30.47 in 2.5 mi Calm Calm - N/A   Mostly Cloudy
4:32 AM 30.2 °F - 30.2 °F 100% 30.47 in 1.0 mi South 2.3 mph - N/A   Scattered Clouds
4:35 AM 30.2 °F - 30.2 °F 100% 30.47 in 1.0 mi Calm Calm - N/A   Mostly Cloudy
4:41 AM 30.2 °F - 30.2 °F 100% 30.47 in 3.0 mi Calm Calm - N/A   Mostly Cloudy
4:42 AM 30.2 °F - 30.2 °F 100% 30.47 in 7.0 mi Calm Calm - N/A   Mostly Cloudy
4:56 AM 26.6 °F - 26.6 °F 100% 30.48 in 5.0 mi Calm Calm - N/A   Mostly Cloudy
5:00 AM 28.4 °F - 28.4 °F 100% 30.48 in 4.0 mi Calm Calm - N/A   Mostly Cloudy
5:05 AM 28.4 °F - 28.4 °F 100% 30.47 in 2.5 mi North 2.3 mph - N/A   Overcast
5:13 AM 28.4 °F - 28.4 °F 100% 30.47 in 0.5 mi Calm Calm - N/A Fog Light Freezing Fog
5:26 AM 28.4 °F - 28.4 °F 100% 30.47 in 0.6 mi Calm Calm - N/A   Mist
5:31 AM 28.4 °F - 28.4 °F 100% 30.47 in 4.0 mi Calm Calm - N/A   Mostly Cloudy
5:32 AM 28.4 °F - 28.4 °F 100% 30.47 in 8.0 mi Calm Calm - N/A   Mostly Cloudy
5:35 AM 28.4 °F - 28.4 °F 100% 30.47 in 5.0 mi Calm Calm - N/A   Mostly Cloudy
5:37 AM 28.4 °F - 28.4 °F 100% 30.47 in 2.5 mi Calm Calm - N/A   Mostly Cloudy
5:41 AM 28.4 °F - 28.4 °F 100% 30.46 in 1.8 mi Calm Calm - N/A   Scattered Clouds
5:47 AM 28.4 °F - 28.4 °F 100% 30.47 in 3.0 mi Calm Calm - N/A   Scattered Clouds
5:51 AM 28.4 °F - 28.4 °F 100% 30.47 in 6.0 mi Calm Calm - N/A   Partly Cloudy
6:00 AM 28.4 °F - 28.4 °F 100% 30.47 in 9.0 mi Calm Calm - N/A   Clear
6:11 AM 26.6 °F - 26.6 °F 100% 30.48 in 5.0 mi Calm Calm - N/A   Clear
6:13 AM 26.6 °F - 26.6 °F 100% 30.48 in 1.8 mi Calm Calm - N/A   Clear
6:15 AM 26.6 °F - 26.6 °F 100% 30.48 in 1.0 mi Calm Calm - N/A   Partly Cloudy
6:20 AM 28.4 °F - 28.4 °F 100% 30.48 in 0.5 mi Calm Calm - N/A Fog Light Freezing Fog
6:24 AM 28.4 °F - 28.4 °F 100% 30.48 in 0.6 mi Calm Calm - N/A   Scattered Clouds
6:25 AM 28.4 °F - 28.4 °F 100% 30.48 in 0.6 mi Calm Calm - N/A   Mostly Cloudy
6:34 AM 28.4 °F - 28.4 °F 100% 30.48 in 0.5 mi Calm Calm - N/A Fog Light Freezing Fog
6:51 AM 28.4 °F - 28.4 °F 100% 30.49 in 0.8 mi Calm Calm - N/A   Mist
6:54 AM 28.4 °F - 28.4 °F 100% 30.49 in 0.5 mi North 2.3 mph - N/A Fog Light Freezing Fog
7:00 AM 28.4 °F - 28.4 °F 100% 30.50 in 0.1 mi Calm Calm - N/A Fog Light Freezing Fog
8:00 AM 30.2 °F - 30.2 °F 100% 30.49 in 0.2 mi Calm Calm - N/A Fog Light Freezing Fog
9:00 AM 32.0 °F - 32.0 °F 100% 30.49 in 0.4 mi Variable 2.3 mph - N/A Fog Light Freezing Fog
9:03 AM 32.0 °F - 32.0 °F 100% 30.49 in 0.6 mi Variable 2.3 mph - N/A   Mostly Cloudy
9:10 AM 32.0 °F 28.7 °F 32.0 °F 100% 30.49 in 3.0 mi NE 3.5 mph - N/A   Mostly Cloudy
9:24 AM 33.8 °F - 33.8 °F 100% 30.49 in 5.0 mi Calm Calm - N/A   Scattered Clouds
9:26 AM 33.8 °F - 33.8 °F 100% 30.49 in 6.0 mi Calm Calm - N/A   Scattered Clouds
9:44 AM 35.6 °F - 33.8 °F 93% 30.49 in 9.0 mi Calm Calm - N/A   Mostly Cloudy
9:51 AM 35.6 °F - 33.8 °F 93% 30.49 in 7.0 mi Variable 2.3 mph - N/A   Scattered Clouds
10:00 AM 35.6 °F - 33.8 °F 93% 30.49 in 7.0 mi Variable 2.3 mph - N/A   Scattered Clouds
10:05 AM 35.6 °F 32.8 °F 35.6 °F 100% 30.49 in 5.0 mi SSW 3.5 mph - N/A   Scattered Clouds
10:31 AM 37.4 °F - 35.6 °F 93% 30.49 in 2.5 mi Calm Calm - N/A   Partly Cloudy
10:42 AM 37.4 °F - 35.6 °F 93% 30.48 in 3.0 mi Variable 2.3 mph - N/A   Clear
11:00 AM 39.2 °F - 35.6 °F 87% 30.48 in 3.0 mi Variable 2.3 mph - N/A   Clear
11:08 AM 39.2 °F 37.0 °F 37.4 °F 93% 30.47 in 2.2 mi SSW 3.5 mph - N/A   Clear
11:19 AM 41.0 °F - 37.4 °F 87% 30.47 in 3.0 mi Variable 2.3 mph - N/A   Clear
11:36 AM 41.0 °F - 37.4 °F 87% 30.45 in 6.0 mi Calm Calm - N/A   Haze
12:00 PM 44.6 °F 43.1 °F 37.4 °F 76% 30.44 in 9.0 mi Variable 3.5 mph - N/A   Clear
1:00 PM 51.8 °F - 37.4 °F 58% 30.42 in 9.0 mi Variable 3.5 mph - N/A   Clear
2:00 PM 55.4 °F - 37.4 °F 51% 30.38 in 9.0 mi Variable 2.3 mph - N/A   Clear
3:00 PM 59.0 °F - 37.4 °F 45% 30.35 in 9.0 mi Variable 2.3 mph - N/A   Clear
4:00 PM 60.8 °F - 37.4 °F 42% 30.32 in 9.0 mi Calm Calm - N/A   Clear
5:00 PM 60.8 °F - 37.4 °F 42% 30.29 in 9.0 mi South 3.5 mph - N/A   Clear
6:00 PM 55.4 °F - 41.0 °F 58% 30.27 in 9.0 mi Calm Calm - N/A   Clear
7:00 PM 48.2 °F - 41.0 °F 76% 30.27 in 9.0 mi Calm Calm - N/A   Clear
8:00 PM 44.6 °F - 39.2 °F 81% 30.27 in 9.0 mi Calm Calm - N/A   Clear
9:00 PM 42.8 °F - 39.2 °F 87% 30.27 in 9.0 mi Calm Calm - N/A   Clear
10:00 PM 39.2 °F 37.0 °F 37.4 °F 93% 30.25 in 9.0 mi South 3.5 mph - N/A   Clear
10:59 PM 37.4 °F - 35.6 °F 93% 30.26 in 4.0 mi Calm Calm - N/A   Clear
11:00 PM 37.4 °F - 35.6 °F 93% 30.25 in 3.0 mi Calm Calm - N/A   Clear
11:55 PM 37.4 °F - 35.6 °F 93% 30.25 in 6.0 mi Calm Calm - N/A   Clear